FW6924 Weather Reports


Display with metric or nautical units.
time (UTC)temp
F
wind
direction
speed
MPH
gust
MPH
rain 1hr
in
rain 24hr
in
rain mn
in
humidity
%
barometer
mb
20260507164004 84 232 6.0 15.0 0.00 0.00 0.00 68 1014.7
20260507163002 85 216 6.0 12.0 0.00 0.00 0.00 65 1014.9
20260507161002 84 224 6.0 10.0 0.00 0.00 0.00 69 1015.0
20260507160008 84 209 7.0 12.0 0.00 0.00 0.00 68 1014.9
20260507155002 84 188 6.0 11.0 0.00 0.00 0.00 70 1014.9
20260507154010 84 198 6.0 11.0 0.00 0.00 0.00 69 1014.9
20260507153004 83 212 5.0 11.0 0.00 0.00 0.00 73 1014.9
20260507152002 83 215 6.0 12.0 0.00 0.00 0.00 72 1015.1
20260507151004 82 201 7.0 13.0 0.00 0.00 0.00 72 1015.0
20260507150003 83 228 5.0 9.0 0.00 0.00 0.00 74 1015.0
20260507145000 83 197 5.0 10.0 0.00 0.00 0.00 74 1015.2
20260507143000 81 215 6.0 12.0 0.00 0.00 0.00 77 1015.0
20260507142003 81 262 6.0 13.0 0.00 0.00 0.00 78 1015.0
20260507140006 81 209 4.0 8.0 0.00 0.00 0.00 81 1014.7
20260507134003 80 226 4.0 10.0 0.00 0.00 0.00 81 1014.8
20260507133000 79 205 3.0 8.0 0.00 0.00 0.00 83 1014.8
20260507131000 78 235 2.0 7.0 0.00 0.00 0.00 87 1014.5
20260507125001 76 200 0.0 4.0 0.00 0.00 0.00 94 1014.5
20260507124003 74 176 1.0 3.0 0.00 0.00 0.00 95 1014.5
20260507123000 73 204 0.0 2.0 0.00 0.00 0.00 96 1014.5
20260507122003 72 271 0.0 0.0 0.00 0.00 0.00 95 1014.4
20260507121000 71 326 0.0 2.0 0.00 0.00 0.00 96 1014.4
20260507114003 68 304 0.0 2.0 0.00 0.00 0.00 95 1014.5
20260507113001 66 273 0.0 0.0 0.00 0.00 0.00 94 1014.5
20260507112003 66 273 0.0 0.0 0.00 0.00 0.00 94 1014.4
20260507111000 66 273 0.0 0.0 0.00 0.00 0.00 93 1014.3
20260507110005 66 273 0.0 0.0 0.00 0.00 0.00 93 1014.0
20260507105000 66 273 0.0 0.0 0.00 0.00 0.00 93 1013.9
20260507104001 66 273 0.0 0.0 0.00 0.00 0.00 93 1013.7
20260507103000 66 273 0.0 0.0 0.00 0.00 0.00 93 1013.5
20260507102000 66 273 0.0 0.0 0.00 0.00 0.00 93 1013.5
20260507101004 66 273 0.0 0.0 0.00 0.00 0.00 93 1013.3
20260507095000 67 273 0.0 0.0 0.00 0.00 0.00 93 1013.1
20260507094002 67 273 0.0 0.0 0.00 0.00 0.00 92 1013.2
20260507093000 67 273 0.0 0.0 0.00 0.00 0.00 92 1013.2
20260507092002 67 273 0.0 0.0 0.00 0.00 0.00 92 1013.0
20260507091000 68 273 0.0 0.0 0.00 0.00 0.00 92 1012.9
20260507085000 68 273 0.0 0.0 0.00 0.00 0.00 92 1012.8
20260507084000 68 273 0.0 0.0 0.00 0.00 0.00 91 1012.8
20260507083004 68 273 0.0 0.0 0.00 0.00 0.00 91 1012.9
20260507082000 68 273 0.0 0.0 0.00 0.00 0.00 91 1012.8
20260507081000 68 273 0.0 0.0 0.00 0.00 0.00 91 1012.5
20260507080002 67 273 0.0 0.0 0.00 0.00 0.00 91 1012.6
20260507075002 67 273 0.0 0.0 0.00 0.00 0.00 90 1012.5
20260507074000 67 273 0.0 0.0 0.00 0.00 0.00 90 1012.6
20260507072000 68 273 0.0 0.0 0.00 0.00 0.00 90 1012.7
20260507071009 68 273 0.0 0.0 0.00 0.00 0.00 90 1012.9
20260507070012 68 273 0.0 0.0 0.00 0.00 0.00 89 1013.0
20260507065000 68 273 0.0 0.0 0.00 0.00 0.00 88 1013.1
20260507064002 68 273 0.0 0.0 0.00 0.00 0.00 88 1013.3
20260507063000 68 273 0.0 0.0 0.00 0.00 0.00 88 1013.4
20260507062020 69 273 0.0 0.0 0.00 0.00 0.00 87 1013.4
20260507061000 69 273 0.0 0.0 0.00 0.00 0.00 87 1013.5
20260507060006 69 273 0.0 0.0 0.00 0.00 0.00 86 1013.4
20260507055000 69 273 0.0 0.0 0.00 0.00 0.00 85 1013.5
20260507054002 70 273 0.0 0.0 0.00 0.00 0.00 85 1013.9
20260507053000 70 273 0.0 0.0 0.00 0.00 0.00 85 1014.0
20260507052002 70 273 0.0 0.0 0.00 0.00 0.00 84 1014.0
20260507051000 70 273 0.0 0.0 0.00 0.00 0.00 84 1014.0
20260507050006 70 273 0.0 0.0 0.00 0.00 0.00 82 1014.0
20260507045002 71 273 0.0 0.0 0.00 0.00 0.00 82 1014.2
20260507044002 71 273 0.0 0.0 0.00 0.00 0.00 83 1014.3
20260507042002 72 273 0.0 0.0 0.00 0.00 0.00 81 1014.3
20260507041002 72 273 0.0 0.0 0.00 0.00 0.00 80 1014.4
20260507040006 72 273 0.0 0.0 0.00 0.00 0.00 80 1014.4
20260507034002 73 273 0.0 0.0 0.00 0.00 0.00 78 1014.3
20260507033004 73 273 0.0 0.0 0.00 0.00 0.00 78 1014.1
20260507032002 74 273 0.0 1.0 0.00 0.00 0.00 77 1014.1
20260507030005 75 273 0.0 0.0 0.00 0.00 0.00 75 1014.2
20260507025002 75 273 0.0 0.0 0.00 0.00 0.00 73 1014.2
20260507024002 76 273 0.0 0.0 0.00 0.00 0.00 73 1014.3
20260507023002 76 273 0.0 0.0 0.00 0.00 0.00 73 1014.2
20260507022008 77 273 0.0 0.0 0.00 0.00 0.00 72 1014.2
20260507021008 77 273 0.0 0.0 0.00 0.00 0.00 73 1014.1
20260507020007 77 273 0.0 0.0 0.00 0.00 0.00 72 1014.1
20260507015002 78 273 0.0 3.0 0.00 0.00 0.00 71 1014.0
20260507014002 78 273 0.0 0.0 0.00 0.00 0.00 66 1014.0
20260507013002 79 273 0.0 1.0 0.00 0.00 0.00 64 1013.9
20260507012002 79 273 0.0 0.0 0.00 0.00 0.00 63 1013.8
20260507010004 80 273 0.0 1.0 0.00 0.00 0.00 62 1013.8
20260507004002 81 281 1.0 4.0 0.00 0.00 0.00 61 1013.8
20260507003004 81 256 1.0 4.0 0.00 0.00 0.00 59 1013.6
20260507001005 82 266 3.0 7.0 0.00 0.00 0.00 56 1013.5
20260506235005 83 250 4.0 7.0 0.00 0.00 0.00 51 1013.4
20260506234002 83 248 4.0 8.0 0.00 0.00 0.00 54 1013.4
20260506233005 83 219 4.0 8.0 0.00 0.00 0.00 52 1013.3
20260506232002 84 240 4.0 8.0 0.00 0.00 0.00 52 1013.3
20260506231011 84 221 4.0 9.0 0.00 0.00 0.00 55 1013.3
20260506230007 84 217 5.0 9.0 0.00 0.00 0.00 56 1013.3
20260506224005 85 225 4.0 9.0 0.00 0.00 0.00 55 1013.4
20260506223003 84 232 6.0 9.0 0.00 0.00 0.00 56 1013.2
20260506222004 85 257 6.0 11.0 0.00 0.00 0.00 55 1013.3
20260506220005 85 218 7.0 11.0 0.00 0.00 0.00 53 1013.3
20260506215006 85 231 8.0 13.0 0.00 0.00 0.00 56 1013.4
20260506214002 86 261 7.0 12.0 0.00 0.00 0.00 56 1013.3
20260506213005 86 230 8.0 14.0 0.00 0.00 0.00 58 1013.4
20260506212002 86 223 6.0 13.0 0.00 0.00 0.00 60 1013.4
20260506211007 87 233 7.0 11.0 0.00 0.00 0.00 63 1013.3
20260506210026 87 221 7.0 14.0 0.00 0.00 0.00 61 1013.2
20260506205002 87 200 7.0 11.0 0.00 0.00 0.00 60 1013.0
20260506204005 88 215 7.0 12.0 0.00 0.00 0.00 60 1013.1
20260506203003 88 227 6.0 12.0 0.00 0.00 0.00 59 1013.2
20260506202004 88 229 5.0 10.0 0.00 0.00 0.00 61 1013.2
20260506195002 89 240 6.0 10.0 0.00 0.00 0.00 61 1013.3
20260506193002 88 233 5.0 9.0 0.00 0.00 0.00 62 1013.6
20260506192002 88 232 5.0 9.0 0.00 0.00 0.00 59 1013.6
20260506191003 89 250 5.0 10.0 0.00 0.00 0.00 60 1013.8
20260506190004 89 228 5.0 9.0 0.00 0.00 0.00 61 1013.8
20260506185004 89 213 5.0 10.0 0.00 0.00 0.00 61 1014.0
20260506184001 88 243 5.0 10.0 0.00 0.00 0.00 60 1014.2
20260506183005 89 248 4.0 9.0 0.00 0.00 0.00 59 1014.2
20260506182001 88 238 7.0 11.0 0.00 0.00 0.00 62 1014.3
20260506181004 88 215 7.0 12.0 0.00 0.00 0.00 63 1014.3
20260506180005 89 254 4.0 11.0 0.00 0.00 0.00 63 1014.3
20260506175023 89 200 3.0 8.0 0.00 0.00 0.00 57 1014.4
20260506174001 88 192 2.0 8.0 0.00 0.00 0.00 56 1014.5
20260506173001 89 208 2.0 8.0 0.00 0.00 0.00 55 1014.6
20260506172001 89 196 2.0 7.0 0.00 0.00 0.00 53 1014.7
20260506171001 89 211 3.0 8.0 0.00 0.00 0.00 56 1014.6
20260506170003 88 196 3.0 11.0 0.00 0.00 0.00 56 1014.8